This is the latest recevied weather packets stored in our database for station/object K7TUS-6. If no packets are shown the sender has not sent any weather packets the latest 10 day(s).
| Time | Temp. | Humidity | Pressure | Rain* | Wind** | Luminosity | Snow |
|---|---|---|---|---|---|---|---|
| 1777783806 | 11.11° C | 18% | 986 hPa | - | - | - | - |
| 1777783506 | 11.11° C | 18% | 985.9 hPa | - | - | - | - |
| 1777783205 | 11.11° C | 19% | 985.8 hPa | - | - | - | - |
| 1777782905 | 11.11° C | 18% | 985.4 hPa | - | - | - | - |
| 1777782604 | 10.56° C | 18% | 985.8 hPa | - | - | - | - |
| 1777782303 | 11.11° C | 18% | 985.4 hPa | - | - | - | - |
| 1777782009 | 11.11° C | 18% | 986.1 hPa | - | - | - | - |
| 1777781709 | 11.11° C | 18% | 985.6 hPa | - | - | - | - |
| 1777781408 | 11.11° C | 18% | 986.1 hPa | - | - | - | - |
| 1777781107 | 11.67° C | 17% | 985.4 hPa | - | - | - | - |
| 1777780807 | 11.67° C | 17% | 984.9 hPa | - | - | - | - |
| 1777780506 | 11.11° C | 17% | 985 hPa | - | - | - | - |
| 1777780206 | 11.67° C | 16% | 985.4 hPa | - | - | - | - |
| 1777779905 | 11.67° C | 17% | 985.3 hPa | - | - | - | - |
| 1777779605 | 11.67° C | 16% | 984.7 hPa | - | - | - | - |
| 1777779303 | 11.67° C | 16% | 985.2 hPa | - | - | - | - |
| 1777779009 | 11.67° C | 17% | 985.3 hPa | - | - | - | - |
| 1777778708 | 11.67° C | 16% | 985.6 hPa | - | - | - | - |
| 1777778407 | 11.67° C | 15% | 985.5 hPa | - | - | - | - |
| 1777778107 | 11.67° C | 14% | 984.9 hPa | - | - | - | - |
| 1777777807 | 12.22° C | 13% | 984.3 hPa | - | - | - | - |
| 1777777506 | 12.22° C | 14% | 984.1 hPa | - | - | - | - |
| 1777777205 | 12.22° C | 14% | 984.5 hPa | - | - | - | - |
| 1777776905 | 12.22° C | 12% | 983.8 hPa | - | - | - | - |
| 1777776604 | 12.78° C | 13% | 984.6 hPa | - | - | - | - |
* Rain since midnight (hover to see other rain measurements)
** Current wind speed in m/s (hover to see current wind gust speed)